Beverly, MA

3:57 PM EDT on September 24, 2017 (GMT -0400)
Beverly Municipal

Weather History for KBVY - September, 2014

Change the Weather History Date:

Tuesday, September 2, 2014

  Actual Average Record
Temperature  
Mean Temperature 79 °F -  
Max Temperature 91 °F 74 °F 97 °F (1980)
Min Temperature 68 °F 54 °F 28 °F (1988)
Cooling Degree Days 14    
Growing Degree Days 29 (Base 50)    
Moisture  
Dew Point 69 °F    
Average Humidity 82    
Maximum Humidity 94    
Minimum Humidity 51    
Precipitation  
Precipitation 0.05 in - - ()
Sea Level Pressure  
Sea Level Pressure 29.83 in    
Wind  
Wind Speed 4 mph (SSW)    
Max Wind Speed 20 mph    
Max Gust Speed 25 mph    
Visibility 8 miles    
Events Rain , Thunderstorm    
Averages and records for this station are not official NWS values.
T = Trace of Precipitation, MM = Missing Value Source: NWS Daily Summary

Daily Weather History Graph

Daily Weather History Graph

Search for Another Location

Airport or City:

Trip Planner

Search our weather history database for the weather conditions in past years. The results will help you decide how hot, cold, wet, or windy it might be!

Date:

Astronomy

Sep. 02, 2014 Rise Set
Actual Time 6:09 AM EDT 7:16 PM EDT
Civil Twilight 5:40 AM EDT 7:45 PM EDT
Nautical Twilight 5:06 AM EDT 8:19 PM EDT
Astronomical Twilight 4:29 AM EDT 8:55 PM EDT
Moon 2:00 PM EDT (9/2) 11:57 PM EDT (9/2)
Length of Visible Light 14h 04m
Length of Day
13h 06m
First Quarter, 52% of the Moon is Illuminated
Sep 2
First Quarter
Sep 8
Full
Sep 15
Last Quarter
Sep 24
New
Oct 1
First Quarter

Hourly Weather History & Observations

Time (EDT) Temp. Heat Index Dew Point Humidity Pressure Visibility Wind Dir Wind Speed Gust Speed Precip Events Conditions
12:53 AM 70.0 °F - 66.9 °F 90% 29.91 in 9.0 mi SW 3.5 mph - N/A   Clear
1:53 AM 71.1 °F - 68.0 °F 90% 29.90 in 8.0 mi Calm Calm - N/A   Clear
2:53 AM 70.0 °F - 68.0 °F 93% 29.88 in 6.0 mi SE 3.5 mph - N/A   Clear
3:53 AM 69.1 °F - 66.9 °F 93% 29.87 in 5.0 mi Calm Calm - N/A   Clear
4:53 AM 68.0 °F - 66.0 °F 93% 29.86 in 6.0 mi Calm Calm - N/A   Clear
5:04 AM 68.0 °F - 66.0 °F 93% 29.88 in 1.8 mi Calm Calm - N/A   Partly Cloudy
5:09 AM 68.0 °F - 66.0 °F 93% 29.88 in 0.8 mi Calm Calm - N/A   Scattered Clouds
5:26 AM 68.0 °F - 66.2 °F 94% 29.88 in 2.0 mi Calm Calm - N/A   Partly Cloudy
5:34 AM 69.1 °F - 66.9 °F 93% 29.88 in 6.0 mi Calm Calm - N/A   Clear
5:53 AM 69.1 °F - 66.9 °F 93% 29.87 in 6.0 mi ESE 3.5 mph - N/A   Clear
6:23 AM 69.1 °F - 66.9 °F 93% 29.89 in 2.5 mi Calm Calm - N/A   Clear
6:34 AM 68.0 °F - 66.0 °F 93% 29.89 in 4.0 mi SE 4.6 mph - N/A   Clear
6:53 AM 70.0 °F - 68.0 °F 93% 29.88 in 3.0 mi Calm Calm - N/A   Clear
7:53 AM 73.9 °F - 70.0 °F 87% 29.88 in 7.0 mi SSW 4.6 mph - N/A   Partly Cloudy
8:53 AM 79.0 °F - 71.1 °F 77% 29.88 in 10.0 mi SW 6.9 mph - N/A   Partly Cloudy
9:53 AM 82.0 °F 86.7 °F 72.0 °F 71% 29.89 in 10.0 mi WSW 10.4 mph - N/A   Clear
10:53 AM 84.9 °F 90.7 °F 72.0 °F 65% 29.88 in 10.0 mi SW 8.1 mph - N/A   Partly Cloudy
11:53 AM 86.0 °F 90.7 °F 70.0 °F 59% 29.85 in 10.0 mi SW 9.2 mph - N/A   Partly Cloudy
12:53 PM 89.1 °F 93.7 °F 69.1 °F 52% 29.82 in 10.0 mi SSW 10.4 mph - N/A   Clear
1:53 PM 88.0 °F 91.4 °F 68.0 °F 51% 29.80 in 10.0 mi SW 10.4 mph - N/A   Mostly Cloudy
2:53 PM 90.0 °F 95.4 °F 70.0 °F 52% 29.78 in 10.0 mi SSW 11.5 mph 18.4 mph N/A   Mostly Cloudy
3:53 PM 84.9 °F 87.6 °F 66.9 °F 55% 29.78 in 10.0 mi WNW 10.4 mph - N/A Thunderstorm Mostly Cloudy
4:09 PM 78.1 °F - 69.1 °F 74% 29.81 in 10.0 mi NNW 19.6 mph 25.3 mph N/A Thunderstorm Thunderstorm
4:53 PM 77.0 °F - 73.0 °F 88% 29.77 in 10.0 mi West 4.6 mph - 0.05 in Rain , Thunderstorm Light Rain
5:25 PM 78.1 °F - 73.0 °F 84% 29.80 in 10.0 mi Calm Calm - 0.00 in   Mostly Cloudy
5:53 PM 78.1 °F - 73.0 °F 84% 29.78 in 10.0 mi Calm Calm - 0.00 in   Mostly Cloudy
6:53 PM 77.0 °F - 73.9 °F 90% 29.77 in 9.0 mi SSE 5.8 mph - N/A   Mostly Cloudy
7:53 PM 73.0 °F - 70.0 °F 90% 29.76 in 10.0 mi South 4.6 mph - N/A   Mostly Cloudy
8:53 PM 72.0 °F - 69.1 °F 91% 29.75 in 9.0 mi SSE 3.5 mph - N/A   Clear
9:53 PM 73.0 °F - 70.0 °F 90% 29.74 in 10.0 mi SSW 4.6 mph - N/A   Clear
10:53 PM 75.0 °F - 70.0 °F 84% 29.73 in 10.0 mi SSW 5.8 mph - N/A   Clear
11:53 PM 75.9 °F - 70.0 °F 82% 29.71 in 10.0 mi SSW 6.9 mph - N/A   Clear